Regional Weather Roundup
Issued by NWS Grand Forks, ND

Home | Current Version | Previous Version | Graphics & Text | Print | Product List | Glossary On
Versions: 1 2 3 4 5 6 7 8 9 10 11 12 13 14 15 16 17 18 19 20 21 22 23 24 25 26 27 28 29 30 31 32 33 34 35 36 37 38 39 40 41 42 43 44 45 46 47 48 49 50
000
ASUS43 KFGF 301110
RWRFGF
PRAIRIE TO PINES  WEATHER ROUNDUP
NATIONAL WEATHER SERVICE EASTERN NORTH DAKOTA/GRAND FORKS ND
500 AM CST FRI JAN 30 2015

 **SATELLITE DATA USED TO AUGMENT SKY COVER AT AUTOMATED STATIONS**
 *****  WEATHER ACROSS EASTERN NORTH DAKOTA  *****

CITY           SKY/WX    TMP DP  RH WIND       PRES   REMARKS
GRAND FORKS    CLOUDY     9   1  72 S10       30.45F WCI  -6
GRAND FRKS AFB CLOUDY     8   2  74 S12       30.44F WCI  -7
GRAND FRKS NWS   N/A      7 N/A N/A S5          N/A  WCI  -2
DEVILS LAKE    CLOUDY    16  12  86 SE12      30.31F WCI   3
FARGO          MOCLDY    10   3  73 S7        30.48F WCI  -1
WAHPETON ARPT  MOSUNNY   12   5  73 S6        30.49S WCI   3
$$

 ***** WEATHER ACROSS CENTRAL AND WESTERN NORTH DAKOTA  *****

CITY           SKY/WX    TMP DP  RH WIND       PRES   REMARKS
BISMARCK       CLEAR     19  17  92 S10       30.29F WCI   7
MINOT          PTCLDY    19  15  84 S6        30.17F WCI  11
JAMESTOWN      CLOUDY    19  16  88 S13       30.34F WCI   6
MINOT AFB      CLEAR     18  18  99 S9        30.17F WCI   7
GARRISON         N/A     19  16  88 SE6       30.20F WCI  11
WILLISTON      CLEAR     18  15  88 CALM      30.15F
DICKINSON      CLEAR     27  18  69 S14       30.14F WCI  16
HETTINGER      PTCLDY    25  17  72 CALM      30.21F
$$

 *****  OTHER AIRPORT OBSERVATIONS IN OUR AREA  *****

CITY           SKY/WX    TMP DP  RH WIND       PRES   REMARKS
WALHALLA         N/A      7   7 100 S10       30.39F WCI  -8
GRAFTON AIRPOR NOT AVBL
VALLEY CITY AR CLOUDY    16  16 100 S9        30.38F WCI   4
CANDO          CLOUDY    16  12  86 SE14      30.29F WCI   1
CAVALIER APRT  PTSUNNY    7   3  85 S10       30.42F WCI  -8
GWINNER        CLOUDY    19  18  93 S9        30.43F WCI   9
ROLLA          CLOUDY    14  14 100 S16       30.24F WCI  -2
 ***** THE ABOVE OBSERVATIONS ARE NON NWS ARE NOT QUALITY
       CONTROLLED AND MAY MIS-REPORT RAIN FOR SNOW...
$$

  *****  WEATHER ACROSS NORTHERN MINNESOTA  *****

CITY           SKY/WX    TMP DP  RH WIND       PRES   REMARKS
FLAG ISLAND    CLOUDY    -2  -6  84 S5        30.44F WCI -12
WARROAD        PTCLDY     0  -6  78 S5        30.44F WCI -10
ROSEAU         MOCLDY     1  -4  78 S7        30.45F WCI -11
HALLOCK        MOCLDY     7   1  78 S14       30.44F WCI -10
THF RVR FALLS  CLOUDY     3   0  85 S8        30.45F WCI -10
BAUDETTE       CLOUDY    -3  -7  82 CALM      30.44F
WASKISH        CLOUDY    -2  -6  84 CALM      30.45F
CROOKSTON      CLOUDY     7   1  78 S7        30.48F WCI  -5
STEPHEN NDAWN    N/A      7   1  78 S12         N/A  WCI  -9
GREENBUSH NDAW   N/A      3   0  85 S10         N/A  WCI -12
$$
  *****  WEATHER ACROSS CENTRAL AND WEST MINNESOTA  *****

CITY           SKY/WX    TMP DP  RH WIND       PRES   REMARKS
FOSSTON        CLOUDY     1  -2  85 S6        30.45S WCI -10
BEMIDJI        PTCLDY     0  -4  86 S3        30.43F
PARK RAPIDS    CLOUDY     4   0  83 S7        30.44S WCI  -8
ELBOW LAKE     FAIR       9   4  80 SE3       30.47S
WADENA         MOCLDY     3   1  92 CALM      30.47R FOG
DETROIT LAKES  MOCLDY     7   3  85 S7        30.44F WCI  -5
MOORHEAD       MOCLDY    10   7  85 S7        30.48F WCI   0
FERGUS FALLS   MOCLDY     9   1  72 SE3       30.51F
MORRIS MN      FAIR       9   3  78 S5        30.47F WCI   0
STAPLES        MOCLDY     5   1  85 CALM      30.48R
$$
  *****  WEATHER ELSEWHERE ACROSS MINNESOTA  *****

CITY           SKY/WX    TMP DP  RH WIND       PRES   REMARKS
DULUTH         PTCLDY    -1  -6  79 N5        30.42F WCI -11
INTRNTL FALLS  MOCLDY    -9 -14  78 CALM      30.45F
ELY            NOT AVBL
CLOQUET        MOCLDY     0  -6  78 W5        30.45S WCI -10
WHEATON        CLEAR      9   5  85 SE5       30.50F WCI   0
BRAINERD       PTCLDY     5   0  79 N3        30.49S
HIBBING        PTCLDY    -7 -13  75 CALM      30.44F
ALEXANDRIA     PTCLDY     8   2  76 SE3       30.45F
SAINT CLOUD    MOCLDY     9   4  80 CALM      30.50F
MINNEAPOLIS    CLOUDY    12   4  70 NE6       30.53F WCI   3
$$

  *****  WEATHER ACROSS SOUTH DAKOTA  *****

CITY           SKY/WX    TMP DP  RH WIND       PRES   REMARKS
SIOUX FALLS    PTCLDY    20  15  81 SE6       30.47F WCI  12
BROOKINGS      NOT AVBL
WATERTOWN      CLOUDY    17  14  88 S12       30.41F WCI   4
HURON          CLEAR     17  14  88 S9        30.44F WCI   6
SISSETON         N/A     15  12  88 S9        30.44F WCI   3
ABERDEEN       CLEAR     16  13  88 S8        30.42F WCI   5
MITCHELL       CLEAR     21  17  84 S10       30.47F WCI  10
PIERRE         CLEAR     21  18  88 SE12      30.32F WCI   9
MOBRIDGE       CLEAR     21  17  84 SE14      30.29F WCI   8
RAPID CITY     PTCLDY    22  14  71 CALM      30.20F
$$

  *****  SOME WEATHER IN NEARBY STATES *****

CITY           SKY/WX    TMP DP  RH WIND       PRES   REMARKS
GLASGOW MT     CLEAR     21  18  88 NW8       30.17S WCI  11
GREAT FALLS MT CLEAR     27  18  69 S12       30.20F WCI  17
CHEYENNE WY    CLOUDY    27  21  78 W5        30.21F WCI  22
SCOTTSBLUFF NE MOCLDY    29  22  75 E8        30.26F WCI  21
OMAHA NE       PTCLDY    19  17  92 CALM      30.54F
DES MOINES IA  CLEAR     19  13  77 N7        30.55R WCI  10
DAVENPORT IA   CLEAR     17  10  74 NW9       30.51R WCI   6
CHICAGO IL     FAIR      22   8  55 N10G20    30.43R WCI  11
EAU CLAIRE WI  MOCLDY     5  -2  72 CALM      30.50F
LA CROSSE WI   CLEAR     11   5  77 N5        30.54S WCI   3
$$

  *****  SOME NATIONAL WEATHER *****

CITY           SKY/WX    TMP DP  RH WIND       PRES   REMARKS
LA GUARDIA NY  FLURRIES  35  26  69 W7        29.84F
RALEIGH NC     CLOUDY    40  27  59 W3        29.98R
ATLANTA GA     PTCLDY    39  25  57 NW25G39   30.21R
NEW ORLEANS LA MOCLDY    52  41  66 N14       30.30R
OKLAHOMA CITY  MOCLDY    35  26  69 NE3       30.50R
ALBUQUERQUE NM CLOUDY    36  27  69 E21G29    30.32F
SALT LAKE CITY CLOUDY    38  36  92 CALM      30.20F
LOS ANGELES CA CLOUDY    64  47  53 NW7       29.95F
BOISE ID       PTCLDY    32  29  88 S6        30.29F
SEATTLE WA     CLEAR     40  37  89 NE5       30.32R
$$

*** WEATHER ACROSS MANITOBA...SASKATCHEWAN AND ONTARIO ***
                ***ONTARIO***

CITY           SKY/WX    TMP DP  RH WIND       PRES   REMARKS
GERALDTON      CLEAR    -18 -22  83 W7        30.36R WCI -35
THUNDER BAY    CLEAR     -6  -9  84 W7        30.51S WCI -20
SIOUX LOOKOUT  CRYSTALS -11 -17  77 W2        30.40F
TORONTO        CLOUDY    18  10  73 N25G33    30.04R WCI  -1
BIG TROUT LK   CLEAR    -17 -22  76 W9        30.26F WCI -36
PICKLE LAKE    CLEAR    -17 -22  76 W9        30.33  WCI -36
DRYDEN         CLOUDY    -9 -13  84 W6        30.40F WCI -23
KENORA         PTCLDY    -9 -13  84 S5        30.42F WCI -21
$$
                *** MANITOBA***

CITY           SKY/WX    TMP DP  RH WIND       PRES   REMARKS
BRANDON        FLURRIES  10   7  85 E7        30.25F WCI   0
DAUPHIN        CLOUDY     9   7  92 NE3       30.24F
ISLAND LAKE    CLEAR    -13 -20  70 SW5       30.31F WCI -25
PILOT MOUND      N/A     12   9  85 S14         N/A  WCI  -3
THE PAS        LGT SNOW   1  -2  85 SE7       30.20F WCI -11
THOMPSON       CLOUDY   -11 -18  70 SW2       30.24F
WINNIPEG       FLURRIES   5  -4  66 S16       30.40F WCI -14
LYNN LAKE      CLOUDY    -8 -13  77 W7        30.17S WCI -22
CHURCHILL      CLEAR    -17 -26  63 W16       30.10F WCI -41
GILLAM         CLEAR    -17 -22  76 SW9       30.21F WCI -36
$$
                ***SASKATCHEWAN***

CITY           SKY/WX    TMP DP  RH WIND       PRES   REMARKS
ESTEVAN        PTCLDY    12   9  85 E2        30.13F
KINDERSLEY     PTCLDY    12   9  85 VRB2      30.18S
LLOYDMINSTER   CLEAR     21  19  93 NW7       30.16  FOG     WCI  13
PRINCE ALBERT  FLURRIES   9   7  92 W2        30.15F
REGINA         PTCLDY    10   9  92 SE7       30.13F WCI   0
YORKTON        PTCLDY     7   5  92 S5        30.15F WCI  -2
N. BATTLEFORD  CLOUDY    19  18  93 NW10      30.18F WCI   8
LA RONGE       FLURRIES   5   1  85 N3        30.19
SASKATOON      MOCLDY    12  10  92 W8        30.17S WCI   1
SWIFT CURRENT  HVY SNOW  27  27 100 W14       30.15S VSB 1/4 WCI  15
$$
NOTE: THESE ARE AUTOMATED STATIONS WITH LIMITED QUALITY CONTROL
      "FAIR" INDICATES FEW OR NO CLOUDS BELOW 12,000 FEET WITH NO
      SIGNIFICANT WEATHER AND/OR OBSTRUCTIONS TO VISIBILITY.
      SKY/WX - SKY CONDITION AND SIGNIFICANT WEATHER.
      TMP - AIR TEMPERATURE.    DP   - DEWPOINT TEMPERATURE.
      RH  - RELATIVE HUMIDITY.  PRES - PRESSURE.
      HX  - HEAT INDEX.         WCI  - WIND CHILL INDEX.
$


USA.gov is the U.S. government's official web portal to all federal, state and local government web resources and services.